Regional Weather Roundup
Issued by NWS Newport/Morehead, NC

Current Version | Previous Version | Text Only | Print | Product List | Glossary Off
Versions: 1 2 3 4 5 6 7 8 9 10 11 12 13 14 15 16 17 18 19 20 21 22 23 24 25 26 27 28 29 30 31 32 33 34 35 36 37 38 39 40 41 42 43 44 45 46 47 48 49 50
097 ASUS42 KMHX 272213 RWRMHX WEATHER ROUNDUP FOR EASTERN NORTH CAROLINA NATIONAL WEATHER SERVICE NEWPORT/MOREHEAD CITY NC 600 PM EDT SAT AUG 27 2016 NOTE: "FAIR" INDICATES FEW OR NO CLOUDS BELOW 12,000 FEET WITH NO SIGNIFICANT WEATHER AND/OR OBSTRUCTIONS TO VISIBILITY NCZ015>017-031-032-045>047-102-103-272300- NORTH COAST CITY SKY/WX TMP DP RH WIND PRES REMARKS EDENTON MOSUNNY 89 69 51 E7 30.08F ELIZABETH CITY SUNNY 86 73 65 NE14 30.09S KITTY HAWK CLEAR 85 81 86 NE6 30.08S HX 101 MANTEO PTSUNNY 83 78 85 E12 30.09S $$ NCZ045>047-081-094-103-104-272300- CENTRAL COAST CITY SKY/WX TMP DP RH WIND PRES REMARKS FRISCO MOSUNNY 85 77 77 NE7 30.07F $$ NCZ095-097-098-100-101-272300- SOUTHERN COAST CITY SKY/WX TMP DP RH WIND PRES REMARKS BEAUFORT MOSUNNY 86 76 71 E9 30.06S CEDAR ISLAND NOT AVBL JACKSONVILLE SUNNY 86 74 67 SE10 30.04F PINEY ISLAND NOT AVBL WILMINGTON SUNNY 86 74 67 E9 30.05F $$ NCZ011>013-027>030-043-044-078>080-089-090>093-098-272300- COASTAL PLAIN CITY SKY/WX TMP DP RH WIND PRES REMARKS AHOSKIE SUNNY 89 68 50 N9 30.08S CLINTON MOSUNNY 90 79 69 CALM 30.03F HX 105 ELIZABETHTOWN MOSUNNY 91 74 57 SE9 30.03F HX 100 GOLDSBORO NOT AVBL GREENVILLE MOSUNNY 91 72 52 E12 30.07S HAVELOCK MOSUNNY 89 73 59 E7 30.06F KENANSVILLE MOSUNNY 90 73 58 SE12G22 30.04F KINSTON SUNNY 91 72 52 E8 30.05F NEW BERN SUNNY 88 74 63 E10 30.06F RICHLANDS SUNNY 87 76 69 SE8 30.05S ROCKY MOUNT MOSUNNY 93 70 46 NE10 30.05S WASHINGTON SUNNY 89 69 53 E10 30.06S WHITEVILLE MOSUNNY 86 74 66 NE3 30.03F $$ AMZ130-135-150-152-154-156-158-170-250-252-270-ANZ085-086-088-633-658-670-272300- MARINE OBSERVATIONS STATION/POSITION TIME TEMP WIND PRES WAVE SWELL AIR SEA DIR/SP/G HT/PER HT/PER (UTC) (F) (DEG/KT/KT) (MB) (FT/S) (FT/S) CHESAPEAKE LIGHT NOT AVBL 64 E VA BEACH 2150 81 82 30/ 14/ 16 1018.6 3/ 9 2/ 9 DUCK 2100 80 79 30/ 12/ 14 1018.3 2 E DUCK 2111 80 N/A 2/ 9 OREGON INLET 2100 82 82 30/ 8/ 11 1018.6 13E OREGON INLT 2100 82 N/A 3/ 8 3/ 8 HATTERAS CG 2100 85 84 60/ 8/ 12 1018.3 DIAMOND BUOY 2150 83 85 50/ 8/ 10 1018.1 3/ 9 3/ 9 CAPE LOOKOUT 2200 83 90/ 9/ 10 1017.6 BEAUFORT LAB 2100 84 82 120/ 10/ 13 1017.3 30 SE NEW RVR IN 2108 84 85 110/ 8/ 10 1018.0 30 SE NEW RVR IN 2125 85 N/A 3/10 27 SE WRIGHTSVLE 2108 84 85 100/ 6/ 10 1018.1 5 SE WRIGHTSVLE 2108 83 84 150/ 8/ 12 1018.7 225 S CAPE HAT 2150 83 84 60/ 16/ 17 1015.9 4/ 9 3/ 9 41 SE CHARLESTON 2150 84 85 70/ 12/ 14 1016.5 5/10 3/10 $$

USA.gov is the U.S. government's official web portal to all federal, state and local government web resources and services.